Regional Weather Roundup
Issued by NWS

Home | Current Version | Previous Version | Text Only | Print | Product List | Glossary Off
Versions: 1 2 3 4 5 6 7 8 9 10 11 12 13 14 15 16 17 18 19 20 21 22 23 24 25 26 27 28 29 30 31 32 33 34 35 36 37 38 39 40 41 42 43 44 45 46 47 48 49 50

000
ASUS43 KOAX 161702
RWRNE

WEATHER ROUNDUP FOR NEBRASKA
NATIONAL WEATHER SERVICE OMAHA NE
1200 PM CDT WED APR 16 2014

NOTES: SATELLITE DATA IS BEING USED TO AUGMENT CLOUD COVER ABOVE
       12000 FEET.
       "FAIR" INDICATES FEW OR NO CLOUDS BELOW 12,000 FEET WITH NO
       SIGNIFICANT WEATHER AND/OR OBSTRUCTIONS TO VISIBILITY.

  * THESE STATIONS DO NOT REPORT WEATHER SUCH AS RAIN...SNOW OR FOG.

NEZ001>004-019>022-054>056-161800-
NEBRASKA PANHANDLE

CITY           SKY/WX    TMP DP  RH WIND       PRES   REMARKS
SCOTTSBLUFF    MOSUNNY   50  27  40 N29G38    29.91R
ALLIANCE       CLOUDY    41  35  79 N22G35    29.89R
CHADRON        LGT RAIN  43  38  82 NW15      29.91R
KIMBALL        PTSUNNY   44  27  51 N23G31    29.91R
SIDNEY         MOSUNNY   49  28  44 NW29G44   29.91R
$$

NEZ057>060-069>072-079>082-161800-
SOUTHWEST NEBRASKA

CITY           SKY/WX    TMP DP  RH WIND       PRES   REMARKS
NORTH PLATTE   PTSUNNY   50  35  56 NW29G37   29.80R
IMPERIAL       MOSUNNY   54  33  45 NW29G44   29.83R
LEXINGTON      PTSUNNY   53  39  58 NW26G33   29.76R
MCCOOK         SUNNY     57  35  43 NW31G37   29.80R
OGALLALA       CLOUDY    49  34  55 N26G36    29.85R
$$

NEZ005>010-023>029-035>040-094-161800-
NORTH CENTRAL NEBRASKA

CITY           SKY/WX    TMP DP  RH WIND       PRES   REMARKS
VALENTINE      CLOUDY    35  30  82 N21G29    29.85R WCI  24
AINSWORTH      CLOUDY    36  31  83 NW23G30   29.82R WCI  24
BROKEN BOW     PTSUNNY   47  35  63 NW29G38   29.75R
O`NEILL        CLOUDY    39  32  75 NW25G35   29.73R WCI  28
ORD            MOSUNNY   51  33  50 NW26G35   29.71R
THEDFORD       RAIN      40  35  83 NW17G26   29.83R WCI  31
$$

NEZ041-046>049-061>064-073>077-083>087-161800-
SOUTH CENTRAL NEBRASKA

CITY           SKY/WX    TMP DP  RH WIND       PRES   REMARKS
GRAND ISLAND   MOSUNNY   58  34  40 W14       29.68S
AURORA         PTSUNNY   57  29  34 W17G25    29.68R
HASTINGS       MOSUNNY   60  37  42 NW21      29.69R
HEBRON         PTSUNNY   62  22  22 SW23G32   29.70S
HOLDREGE       PTSUNNY   56  40  55 NW24G36   29.73R
KEARNEY *      PTSUNNY   55  39  54 NW25G33   29.72R
YORK           CLOUDY    57  27  30 SW22G31   29.68S
$$

NEZ011>018-030>034-042>045-161800-
NORTHEAST NEBRASKA

CITY           SKY/WX    TMP DP  RH WIND       PRES   REMARKS
NORFOLK        CLOUDY    53  26  35 SW17      29.64R
ALBION         CLOUDY    50  33  52 NW18G25   29.67R
BLAIR          CLOUDY    55  28  35 S23G31    29.71R
COLUMBUS *     CLOUDY    55  27  33 SW18G26   29.68R
FREMONT        CLOUDY    56  25  29 S18G26    29.70S
TEKAMAH        CLOUDY    56  27  32 S30G38    29.70R
$$

NEZ050>053-065>068-078-088>093-161800-
SOUTHEAST NEBRASKA

CITY           SKY/WX    TMP DP  RH WIND       PRES   REMARKS
LINCOLN        CLOUDY    62  24  23 SW28G39   29.71R
OMAHA EPPLEY   CLOUDY    56  27  32 S25G38    29.72F
BEATRICE       CLOUDY    62  23  22 SW31G43   29.72R
FALLS CITY     CLOUDY    58  29  33 S28G44    29.80F
NEBRASKA CITY  CLOUDY    59  29  32 S30G37    29.76F
PLATTSMOUTH    CLOUDY    56  26  31 S21G28    29.75F
$$

NEZ044-045-051>053-067-161800-
OMAHA AREA

CITY           SKY/WX    TMP DP  RH WIND       PRES   REMARKS
OMAHA EPPLEY   CLOUDY    56  27  32 S25G38    29.72F
BLAIR          CLOUDY    55  28  35 S23G31    29.71R
FREMONT        CLOUDY    56  25  29 S18G26    29.70S
MILLARD        CLOUDY    56  29  35 S20G26    29.71F
OFFUTT AFB     CLOUDY    56  29  35 S24G32    29.73F
PLATTSMOUTH    CLOUDY    56  26  31 S21G28    29.75F
WAHOO          FAIR      57  23  27 S24G35    29.70S
$$



USA.gov is the U.S. government's official web portal to all federal, state and local government web resources and services.